STARLINK-11648, 63313

Orbit data source: Space-Track

STARLINK-11648, 63313 is a payload satellite owned by SpaceX/Seattle (US) in LEO that was launched on Tue, 18 Mar 2025 UTC via an FALCON 9 launch vehicle from the Air Force Eastern Test Range (AFETR). Payload-class satellites include a variety of spacecraft equipped with specific instruments for various scientific and technological missions. These include communications satellites like Starlink; space stations such as the ISS; scientific satellites like the Hubble; Earth observation satellites from companies like Planet Labs, Umbra, and HawkEye 360; GPS; miniature CubeSats for education and research; and military/defense satellites.

Loading next visibility...
Identifier
63313, 2025-057G
Orbit
LEO
Country
Flag of USUS
Related business
Manufacturer
SpaceX/Seattle
Mission
Operational Commercial Communications
Bus & Motor
STARLINK V2MD, Unknown motor
Mass
960 kg wet, ~910 kg dry
Launch date (UTC)
2025-03-18 (7 months ago)
Launch vehicle
FALCON 9
Launch site
Air Force Eastern Test Range (AFETR)
Object type
Payload
Rocket body
Debris
Shape & HBR
Box + 2 Pan, 18.1 m
Radar Cross Section
36.964 m², Large (>1 m²)

Expand to show TLE details & history
Last TLE update: 10 hours ago

TLE from 10 hours ago
0 STARLINK-11648
1 63313U 25057G   25296.14795203  .00255737  00000-0  19238-2 0  9994
2 63313  43.0005  13.7866 0002596 292.2371  67.8222 15.70987186 35545
Epoch: 2025-10-23T03:33Z
TLE epoch observation values (Epoch: 2025-10-23T03:33:03.055Z)
Latitude
0.00004°
Longitude
-71.28746°
Altitude
355.186 km
Speed
7.698 km/s
True Right ascension
00h 55m 08s
True Declination
0° 00' 00"
Sunlit
Object was in full shadow at epoch
Visualization orbit readout
Latitude
Unknown
Longitude
Unknown
Altitude
Unknown
Speed
Unknown
Apparent Right ascension
Unknown
Apparent Declination
Unknown
Sunlit
N/A
Visualization observer readout
Local Sidereal Time
08:20:08
Azimuth
Unknown
Elevation
Unknown
Doppler factor
Unknown
Orbital elements
Apogee altitude
359.805 km
Perigee altitude
356.307 km
Semi-major axis
6,736.193 km
Eccentricity
0.00026
Inclination
43.0005°
RAAN
13.7866°
Arg. of periapsis
292.2371°
True anomaly
67.84975°
Mean anomaly
67.8222°
Eccentric anomaly
67.83597°
Mean motion
3.92574 °/min
Orbital period
91.7 mins
BSTAR
0.0019238
Loading maneuver chart data...
Computing Atmospheric mass density...
Loading historical data...
Loading historical data...
Loading historical data...
Loading historical data...
Loading historical data...
Loading historical data...
Loading historical data...

Documentation

Showing up to 5 results
|